This is the latest recevied weather packets stored in our database for station/object KE4AMH. If no packets are shown the sender has not sent any weather packets the latest 10 day(s).
| Time | Temp. | Humidity | Pressure | Rain* | Wind** | Luminosity | Snow |
|---|---|---|---|---|---|---|---|
| 1778192887 | 22.22° C | 73% | 1010.2 hPa | 0 mm | - | 61 W/m² | - |
| 1778192583 | 22.22° C | 74% | 1010.3 hPa | 0 mm | - | 33 W/m² | - |
| 1778192280 | 22.22° C | 73% | 1010 hPa | 0 mm | - | 10 W/m² | - |
| 1778191976 | 22.22° C | 73% | 1009.7 hPa | 0 mm | - | 49 W/m² | - |
| 1778191672 | 22.78° C | 73% | 1009.8 hPa | 0 mm | - | 34 W/m² | - |
| 1778191371 | 22.78° C | 71% | 1009.8 hPa | 0 mm | - | 50 W/m² | - |
| 1778191067 | 23.33° C | 71% | 1009.8 hPa | 0 mm | - | 82 W/m² | - |
| 1778190764 | 22.78° C | 71% | 1009.6 hPa | 0 mm | - | 54 W/m² | - |
| 1778190461 | 23.33° C | 72% | 1009.6 hPa | 0 mm | - | 57 W/m² | - |
| 1778190159 | 22.78° C | 71% | 1009.6 hPa | 0 mm | - | 53 W/m² | - |
| 1778189854 | 22.78° C | 71% | 1009.6 hPa | 0 mm | - | 57 W/m² | - |
| 1778189551 | 22.78° C | 71% | 1009.6 hPa | 0 mm | - | 44 W/m² | - |
| 1778189247 | 23.33° C | 70% | 1009.5 hPa | 0 mm | - | 66 W/m² | - |
| 1778188944 | 23.89° C | 68% | 1009.6 hPa | 0 mm | - | 48 W/m² | - |
| 1778188641 | 23.89° C | 68% | 1009.4 hPa | 0 mm | - | 84 W/m² | - |
| 1778188336 | 23.89° C | 71% | 1009.6 hPa | 0 mm | - | 61 W/m² | - |
| 1778188034 | 23.89° C | 67% | 1009.4 hPa | 0 mm | - | 42 W/m² | - |
| 1778187731 | 23.89° C | 68% | 1009.5 hPa | 0 mm | - | 116 W/m² | - |
| 1778187427 | 23.89° C | 68% | 1009.4 hPa | 0 mm | - | 64 W/m² | - |
| 1778187124 | 23.33° C | 69% | 1009.5 hPa | 0 mm | - | 103 W/m² | - |
| 1778186820 | 23.33° C | 67% | 1009.4 hPa | 0 mm | - | 69 W/m² | - |
| 1778186518 | 23.89° C | 68% | 1009.5 hPa | 0 mm | - | 76 W/m² | - |
| 1778186216 | 23.89° C | 67% | 1009.5 hPa | 0 mm | - | 60 W/m² | - |
| 1778185913 | 23.89° C | 67% | 1009.5 hPa | 0 mm | - | 132 W/m² | - |
| 1778185608 | 23.33° C | 68% | 1009.6 hPa | 0 mm | - | 142 W/m² | - |
* Rain latest hour (hover to see other rain measurements)
** Current wind speed in m/s (hover to see current wind gust speed)